Weather History for YMML - February, 2014

Change the Weather History Date:

Friday, February 21, 2014

  Actual Average Record
Temperature  
Mean Temperature 58 °F -  
Max Temperature 67 °F 74 °F 98 °F (2015)
Min Temperature 50 °F 53 °F 50 °F (2002)
Degree Days  
Heating Degree Days 6    
Growing Degree Days 8 (Base 50)    
Moisture  
Dew Point 45 °F    
Average Humidity 58    
Maximum Humidity 88    
Minimum Humidity 32    
Precipitation  
Precipitation 0.00 in 0.05 in - ()
Sea Level Pressure  
Sea Level Pressure 30.13 in    
Wind  
Wind Speed 12 mph ()    
Max Wind Speed 22 mph    
Max Gust Speed 32 mph    
Visibility 7.3 miles    
Events      
Averages and records for this station are not official NWS values.
T = Trace of Precipitation, MM = Missing Value Source: Averaged Metar Reports

Daily Weather History Graph

Daily Weather History Graph

Search for Another Location

Airport or City:

Trip Planner

Search our weather history database for the weather conditions in past years. The results will help you decide how hot, cold, wet, or windy it might be!

Date:

Astronomy

Feb. 21, 2014 Rise Set
Actual Time 6:56 AM AEDT 8:11 PM AEDT
Civil Twilight 6:29 AM AEDT 8:38 PM AEDT
Nautical Twilight 5:56 AM AEDT 9:11 PM AEDT
Astronomical Twilight 5:22 AM AEDT 9:45 PM AEDT
Moon 11:29 PM AEDT (2/21) 12:41 PM AEDT (2/21)
Length of Visible Light 14h 09m
Length of Day
13h 15m
Waning Gibbous, 68% of the Moon is Illuminated
Feb 21
Waning Gibbous
Feb 23
Last Quarter
Mar 1
New
Mar 9
First Quarter
Mar 17
Full

Hourly Weather History & Observations

Time (AEDT) Temp. Dew Point Humidity Pressure Visibility Wind Dir Wind Speed Gust Speed Precip Events Conditions
12:00 AM 53 °F 43 °F 59% 30.05 in 25 mi WNW 10.4 mph - -   Partly Cloudy
12:00 AM 53.6 °F 42.8 °F 67% 30.04 in - WNW 10.4 mph - N/A   Clear
12:30 AM 51.8 °F 42.8 °F 71% 30.04 in - WNW 9.2 mph - N/A   Clear
1:00 AM 55 °F 44 °F 56% 30.06 in - West 9.2 mph - -  
1:00 AM 55.4 °F 44.6 °F 67% 30.06 in 6.2 mi West 9.2 mph - N/A   Mostly Cloudy
1:30 AM 53.6 °F 44.6 °F 72% 30.04 in 6.2 mi West 10.4 mph - N/A   Partly Cloudy
2:00 AM 53 °F 45 °F 65% 30.04 in - West 11.5 mph - -  
2:00 AM 53.6 °F 44.6 °F 72% 30.04 in 6.2 mi West 11.5 mph - N/A   Partly Cloudy
2:30 AM 53.6 °F 44.6 °F 72% 30.04 in 6.2 mi West 12.7 mph - N/A   Scattered Clouds
3:00 AM 54 °F 45 °F 63% 30.03 in 25 mi West 12.7 mph - -   Partly Cloudy
3:00 AM 53.6 °F 44.6 °F 72% 30.04 in - West 12.7 mph - N/A   Clear
3:30 AM 53.6 °F 46.4 °F 77% 30.04 in - West 10.4 mph - N/A   Clear
4:00 AM 54 °F 46 °F 67% 30.04 in - West 10.4 mph - -  
4:00 AM 53.6 °F 46.4 °F 77% 30.04 in 6.2 mi West 10.4 mph - N/A   Mostly Cloudy
4:30 AM 53.6 °F 46.4 °F 77% 30.04 in 6.2 mi West 11.5 mph - N/A   Scattered Clouds
5:00 AM 53 °F 46 °F 71% 30.05 in - West 10.4 mph - -  
5:00 AM 53.6 °F 46.4 °F 77% 30.04 in 6.2 mi West 10.4 mph - N/A   Scattered Clouds
5:30 AM 51.8 °F 46.4 °F 82% 30.06 in 6.2 mi West 9.2 mph - N/A   Partly Cloudy
6:00 AM 51 °F 47 °F 80% 30.06 in 25 mi West 10.4 mph - -   Partly Cloudy
6:00 AM 51.8 °F 46.4 °F 82% 30.06 in 6.2 mi West 10.4 mph - N/A   Partly Cloudy
6:30 AM 51.8 °F 46.4 °F 82% 30.06 in 6.2 mi West 11.5 mph - N/A   Partly Cloudy
7:00 AM 52 °F 47 °F 79% 30.09 in - West 12.7 mph - -  
7:00 AM 51.8 °F 48.2 °F 88% 30.09 in 6.2 mi West 12.7 mph - N/A   Partly Cloudy
7:30 AM 51.8 °F 46.4 °F 82% 30.09 in 6.2 mi West 12.7 mph - N/A   Partly Cloudy
8:00 AM 54 °F 47 °F 68% 30.11 in - West 10.4 mph - -  
8:00 AM 53.6 °F 46.4 °F 77% 30.12 in 6.2 mi West 10.4 mph - N/A   Mostly Cloudy
8:30 AM 55.4 °F 46.4 °F 72% 30.12 in 6.2 mi West 13.8 mph - N/A   Mostly Cloudy
9:00 AM 57 °F 46 °F 56% 30.14 in 16 mi WSW 13.8 mph - -   Haze
9:00 AM 57.2 °F 46.4 °F 67% 30.12 in 6.2 mi WSW 13.8 mph - N/A   Mostly Cloudy
9:30 AM 59.0 °F 44.6 °F 59% 30.15 in 6.2 mi WSW 17.3 mph - N/A   Mostly Cloudy
10:00 AM 60 °F 43 °F 42% 30.15 in - SW 18.4 mph - -  
10:00 AM 60.8 °F 42.8 °F 52% 30.15 in 6.2 mi SW 18.4 mph - N/A   Mostly Cloudy
10:30 AM 62.6 °F 42.8 °F 48% 30.15 in 6.2 mi SW 18.4 mph - N/A   Mostly Cloudy
11:00 AM 63 °F 43 °F 37% 30.17 in - SW 18.4 mph - -  
11:00 AM 62.6 °F 42.8 °F 48% 30.15 in 6.2 mi SW 18.4 mph - N/A   Mostly Cloudy
11:30 AM 62.6 °F 44.6 °F 52% 30.18 in 6.2 mi SW 15.0 mph - N/A   Mostly Cloudy
12:00 PM 63 °F 45 °F 41% 30.17 in 19 mi SW 16.1 mph - -   Partly Cloudy
12:00 PM 62.6 °F 44.6 °F 52% 30.18 in 6.2 mi SW 16.1 mph - N/A   Mostly Cloudy
12:30 PM 64.4 °F 44.6 °F 49% 30.18 in 6.2 mi South 13.8 mph - N/A   Mostly Cloudy
1:00 PM 63 °F 45 °F 41% 30.17 in - SW 13.8 mph - -  
1:00 PM 62.6 °F 44.6 °F 52% 30.18 in 6.2 mi SW 13.8 mph - N/A   Mostly Cloudy
1:30 PM 64.4 °F 44.6 °F 49% 30.15 in 6.2 mi South 12.7 mph - N/A   Mostly Cloudy
2:00 PM 65 °F 46 °F 39% 30.17 in - South 12.7 mph - -  
2:00 PM 64.4 °F 46.4 °F 52% 30.15 in 6.2 mi South 12.7 mph - N/A   Mostly Cloudy
2:30 PM 66.2 °F 46.4 °F 49% 30.15 in 6.2 mi South 15.0 mph - N/A   Mostly Cloudy
3:00 PM 66 °F 44 °F 33% 30.17 in 19 mi South 15.0 mph - -   Partly Cloudy
3:00 PM 66.2 °F 44.6 °F 46% 30.18 in 6.2 mi South 15.0 mph - N/A   Mostly Cloudy
3:30 PM 64.4 °F 44.6 °F 49% 30.15 in 6.2 mi SSE 21.9 mph - N/A   Mostly Cloudy
4:00 PM 67 °F 44 °F 32% 30.16 in - SSE 18.4 mph - -  
4:00 PM 66.2 °F 44.6 °F 46% 30.15 in 6.2 mi SSE 18.4 mph 32.2 mph N/A   Scattered Clouds
4:30 PM 64.4 °F 42.8 °F 45% 30.15 in 6.2 mi SSE 19.6 mph - N/A   Partly Cloudy
5:00 PM 65 °F 42 °F 32% 30.16 in - SSE 19.6 mph - -  
5:00 PM 66.2 °F 42.8 °F 43% 30.15 in 6.2 mi SSE 19.6 mph - N/A   Partly Cloudy
5:30 PM 64.4 °F 44.6 °F 49% 30.15 in 6.2 mi SSE 21.9 mph - N/A   Partly Cloudy
6:00 PM 64 °F 42 °F 33% 30.16 in 16 mi South 19.6 mph - -   Haze
6:00 PM 64.4 °F 42.8 °F 45% 30.15 in 6.2 mi South 19.6 mph - N/A   Partly Cloudy
6:30 PM 62.6 °F 42.8 °F 48% 30.15 in 6.2 mi South 19.6 mph - N/A   Partly Cloudy
7:00 PM 61 °F 42 °F 39% 30.18 in - South 20.7 mph - -  
7:00 PM 60.8 °F 42.8 °F 52% 30.18 in 6.2 mi South 20.7 mph - N/A   Partly Cloudy
7:30 PM 60.8 °F 42.8 °F 52% 30.18 in 6.2 mi South 18.4 mph - N/A   Partly Cloudy
8:00 PM 59 °F 45 °F 50% 30.19 in - South 18.4 mph - -  
8:00 PM 59.0 °F 44.6 °F 59% 30.18 in 6.2 mi South 18.4 mph - N/A   Partly Cloudy
8:30 PM 59.0 °F 44.6 °F 59% 30.18 in 6.2 mi South 17.3 mph - N/A   Partly Cloudy
9:00 PM 58 °F 42 °F 45% 30.21 in 16 mi South 15.0 mph - -   Haze
9:00 PM 57.2 °F 42.8 °F 59% 30.21 in 6.2 mi South 15.0 mph - N/A   Partly Cloudy
9:30 PM 57.2 °F 42.8 °F 59% 30.21 in 6.2 mi South 13.8 mph - N/A   Partly Cloudy
10:00 PM 56 °F 44 °F 53% 30.22 in - South 11.5 mph - -  
10:00 PM 57.2 °F 42.8 °F 59% 30.21 in 6.2 mi South 11.5 mph - N/A   Partly Cloudy
10:30 PM 55.4 °F 44.6 °F 67% 30.21 in 6.2 mi South 10.4 mph - N/A   Partly Cloudy
11:00 PM 55 °F 44 °F 56% 30.22 in - SSW 9.2 mph - -  
11:00 PM 55.4 °F 44.6 °F 67% 30.21 in 6.2 mi SSW 9.2 mph - N/A   Partly Cloudy
11:30 PM 53.6 °F 44.6 °F 72% 30.21 in 6.2 mi SW 6.9 mph - N/A   Scattered Clouds